Location: Antoign�
(47.0844°N, 0.1131°W)
Time: 06:47:21
(UTC+00:00)

SL-4 R/B - Pass Details

Date: 03 March 2021
Orbit: 428 x 663 km, 51.6° (Epoch: 12 April)

Event Time Altitude Azimuth Distance (km) Brightness Sun altitude
Rises 18:09:42 0° 282° (WNW) 2,532 7.2 -4.3°
Reaches altitude 10° 18:12:01 10° 291° (WNW) 1,618 5.7 -4.7°
Maximum altitude 18:15:25 38° 1° (N) 703 2.6 -5.3°
Drops below altitude 10° 18:18:40 10° 71° (ENE) 1,545 3.7 -5.9°
Enters shadow 18:19:14 - 74° (ENE) 1,757 4.0 -6.0°
